| time (UTC) | temp C | wind direction | speed KPH | gust KPH | rain 1hr cm | rain 24hr cm | rain mn cm | humidity % | barometer mb |
| 20260504044058 | 6 | 0 | 0.0 | 0.0 | 0.00 | 0.00 | 0.00 | 69 | 1012.5 |
| 20260504043602 | 6 | 0 | 0.0 | 0.0 | 0.00 | 0.00 | 0.00 | 69 | 1012.5 |
| 20260504043109 | 6 | 0 | 0.0 | 0.0 | 0.00 | 0.00 | 0.00 | 68 | 1012.4 |
| 20260504042557 | 6 | 0 | 0.0 | 0.0 | 0.00 | 0.00 | 0.00 | 68 | 1012.3 |
| 20260504042100 | 6 | 0 | 0.0 | 0.0 | 0.00 | 0.00 | 0.00 | 68 | 1012.2 |
| 20260504041558 | 6 | 0 | 0.0 | 0.0 | 0.00 | 0.00 | 0.00 | 67 | 1012.1 |
| 20260504041054 | 7 | 0 | 0.0 | 0.0 | 0.00 | 0.00 | 0.00 | 68 | 1012.1 |
| 20260504040554 | 7 | 0 | 0.0 | 0.0 | 0.00 | 0.00 | 0.00 | 66 | 1012.1 |
| 20260504040104 | 7 | 0 | 0.0 | 0.0 | 0.00 | 0.00 | 0.00 | 68 | 1012.0 |
| 20260504035555 | 7 | 0 | 0.0 | 0.0 | 0.00 | 0.00 | 0.00 | 67 | 1012.0 |
| 20260504035058 | 7 | 0 | 0.0 | 0.0 | 0.00 | 0.00 | 0.00 | 67 | 1012.0 |
| 20260504034618 | 7 | 0 | 0.0 | 0.0 | 0.00 | 0.00 | 0.00 | 67 | 1012.0 |
| 20260504034058 | 7 | 0 | 0.0 | 0.0 | 0.00 | 0.00 | 0.00 | 65 | 1012.1 |
| 20260504033554 | 7 | 0 | 0.0 | 0.0 | 0.00 | 0.00 | 0.00 | 64 | 1012.0 |
| 20260504033103 | 7 | 0 | 0.0 | 0.0 | 0.00 | 0.00 | 0.00 | 62 | 1012.0 |
| 20260504032556 | 7 | 0 | 0.0 | 0.0 | 0.00 | 0.00 | 0.00 | 62 | 1012.0 |
| 20260504032059 | 7 | 0 | 0.0 | 0.0 | 0.00 | 0.00 | 0.00 | 63 | 1012.1 |
| 20260504031604 | 7 | 0 | 0.0 | 0.0 | 0.00 | 0.00 | 0.00 | 63 | 1012.0 |
| 20260504031101 | 7 | 0 | 0.0 | 0.0 | 0.00 | 0.00 | 0.00 | 63 | 1012.0 |
| 20260504030555 | 7 | 0 | 0.0 | 0.0 | 0.00 | 0.00 | 0.00 | 63 | 1011.9 |
| 20260504030058 | 7 | 0 | 0.0 | 0.0 | 0.00 | 0.00 | 0.00 | 62 | 1011.9 |
| 20260504025558 | 7 | 0 | 0.0 | 0.0 | 0.00 | 0.00 | 0.00 | 63 | 1011.9 |
| 20260504025100 | 7 | 0 | 0.0 | 0.0 | 0.00 | 0.00 | 0.00 | 61 | 1012.0 |
| 20260504024559 | 8 | 0 | 0.0 | 0.0 | 0.00 | 0.00 | 0.00 | 62 | 1011.9 |
| 20260504024055 | 8 | 0 | 0.0 | 0.0 | 0.00 | 0.00 | 0.00 | 61 | 1012.0 |
| 20260504023558 | 8 | 0 | 0.0 | 0.0 | 0.00 | 0.00 | 0.00 | 59 | 1012.0 |
| 20260504023057 | 8 | 0 | 0.0 | 3.2 | 0.00 | 0.00 | 0.00 | 59 | 1012.0 |
| 20260504022626 | 8 | 0 | 0.0 | 3.2 | 0.00 | 0.00 | 0.00 | 59 | 1012.0 |
| 20260504022055 | 8 | 0 | 0.0 | 0.0 | 0.00 | 0.00 | 0.00 | 58 | 1012.0 |
| 20260504021602 | 8 | 0 | 0.0 | 0.0 | 0.00 | 0.00 | 0.00 | 57 | 1012.0 |
| 20260504021055 | 8 | 0 | 0.0 | 0.0 | 0.00 | 0.00 | 0.00 | 58 | 1012.0 |
| 20260504020558 | 8 | 0 | 0.0 | 0.0 | 0.00 | 0.00 | 0.00 | 57 | 1011.9 |
| 20260504020112 | 8 | 0 | 0.0 | 0.0 | 0.00 | 0.00 | 0.00 | 56 | 1012.0 |
| 20260504015558 | 9 | 0 | 0.0 | 0.0 | 0.00 | 0.00 | 0.00 | 56 | 1012.0 |
| 20260504015055 | 9 | 0 | 0.0 | 0.0 | 0.00 | 0.00 | 0.00 | 56 | 1012.0 |
| 20260504014606 | 9 | 0 | 0.0 | 1.6 | 0.00 | 0.00 | 0.00 | 54 | 1011.9 |
| 20260504014054 | 9 | 0 | 0.0 | 1.6 | 0.00 | 0.00 | 0.00 | 53 | 1011.9 |
| 20260504013555 | 10 | 0 | 0.0 | 3.2 | 0.00 | 0.00 | 0.00 | 53 | 1011.8 |
| 20260504013107 | 10 | 0 | 0.0 | 3.2 | 0.00 | 0.00 | 0.00 | 51 | 1011.8 |
| 20260504012559 | 10 | 0 | 0.0 | 3.2 | 0.00 | 0.00 | 0.00 | 50 | 1011.7 |
| 20260504012055 | 10 | 0 | 0.0 | 3.2 | 0.00 | 0.00 | 0.00 | 49 | 1011.7 |
| 20260504011600 | 11 | 0 | 0.0 | 0.0 | 0.00 | 0.00 | 0.00 | 50 | 1011.6 |
| 20260504011100 | 11 | 0 | 0.0 | 0.0 | 0.00 | 0.00 | 0.00 | 48 | 1011.5 |
| 20260504010557 | 11 | 0 | 0.0 | 0.0 | 0.00 | 0.00 | 0.00 | 45 | 1011.4 |
| 20260504010059 | 11 | 0 | 0.0 | 0.0 | 0.00 | 0.00 | 0.00 | 44 | 1011.3 |
| 20260504005555 | 12 | 0 | 0.0 | 0.0 | 0.00 | 0.00 | 0.00 | 45 | 1011.2 |
| 20260504005057 | 12 | 0 | 0.0 | 0.0 | 0.00 | 0.00 | 0.00 | 40 | 1011.3 |
| 20260504004615 | 12 | 0 | 0.0 | 0.0 | 0.00 | 0.00 | 0.00 | 40 | 1011.1 |
| 20260504004055 | 12 | 0 | 0.0 | 0.0 | 0.00 | 0.00 | 0.00 | 40 | 1011.1 |
| 20260504003558 | 13 | 0 | 0.0 | 0.0 | 0.00 | 0.00 | 0.00 | 40 | 1011.0 |
| 20260504003058 | 13 | 0 | 0.0 | 0.0 | 0.00 | 0.00 | 0.00 | 37 | 1011.1 |
| 20260504002605 | 13 | 0 | 0.0 | 0.0 | 0.00 | 0.00 | 0.00 | 37 | 1011.0 |
| 20260504002055 | 13 | 0 | 0.0 | 0.0 | 0.00 | 0.00 | 0.00 | 36 | 1011.0 |
| 20260504001601 | 13 | 0 | 0.0 | 3.2 | 0.00 | 0.00 | 0.00 | 34 | 1010.9 |
| 20260504001058 | 14 | 0 | 0.0 | 3.2 | 0.00 | 0.00 | 0.00 | 34 | 1010.7 |
| 20260504000554 | 14 | 0 | 0.0 | 3.2 | 0.00 | 0.00 | 0.00 | 33 | 1010.7 |
| 20260503235557 | 14 | 0 | 0.0 | 3.2 | 0.00 | 0.00 | 0.00 | 32 | 1010.7 |
| 20260503235055 | 14 | 19 | 0.0 | 3.2 | 0.00 | 0.00 | 0.00 | 32 | 1010.4 |
| 20260503234558 | 15 | 21 | 0.0 | 4.8 | 0.00 | 0.00 | 0.00 | 32 | 1010.4 |
| 20260503234055 | 15 | 22 | 0.0 | 4.8 | 0.00 | 0.00 | 0.00 | 31 | 1010.4 |
| 20260503233555 | 15 | 22 | 0.0 | 4.8 | 0.00 | 0.00 | 0.00 | 31 | 1010.4 |
| 20260503233056 | 15 | 136 | 0.0 | 4.8 | 0.00 | 0.00 | 0.00 | 30 | 1010.3 |
| 20260503232558 | 15 | 0 | 1.6 | 8.0 | 0.00 | 0.00 | 0.00 | 30 | 1010.3 |
| 20260503232055 | 15 | 245 | 1.6 | 8.0 | 0.00 | 0.00 | 0.00 | 30 | 1010.3 |
| 20260503231601 | 15 | 206 | 1.6 | 6.4 | 0.00 | 0.00 | 0.00 | 29 | 1010.3 |
| 20260503231115 | 15 | 188 | 1.6 | 8.0 | 0.00 | 0.00 | 0.00 | 29 | 1010.3 |
| 20260503230557 | 15 | 247 | 1.6 | 8.0 | 0.00 | 0.00 | 0.00 | 28 | 1010.2 |
| 20260503230106 | 16 | 216 | 0.0 | 8.0 | 0.00 | 0.00 | 0.00 | 28 | 1010.2 |
| 20260503225558 | 16 | 234 | 1.6 | 8.0 | 0.00 | 0.00 | 0.00 | 28 | 1010.2 |
| 20260503225058 | 16 | 312 | 1.6 | 16.1 | 0.00 | 0.00 | 0.00 | 27 | 1010.0 |
| 20260503224604 | 16 | 250 | 3.2 | 16.1 | 0.00 | 0.00 | 0.00 | 27 | 1010.1 |
| 20260503224058 | 16 | 227 | 3.2 | 11.3 | 0.00 | 0.00 | 0.00 | 28 | 1010.0 |
| 20260503223555 | 16 | 252 | 3.2 | 11.3 | 0.00 | 0.00 | 0.00 | 27 | 1010.0 |
| 20260503223059 | 16 | 180 | 1.6 | 14.5 | 0.00 | 0.00 | 0.00 | 27 | 1010.0 |
| 20260503222557 | 16 | 0 | 1.6 | 14.5 | 0.00 | 0.00 | 0.00 | 27 | 1010.0 |
| 20260503222057 | 16 | 232 | 1.6 | 14.5 | 0.00 | 0.00 | 0.00 | 27 | 1010.1 |
| 20260503221556 | 15 | 196 | 4.8 | 16.1 | 0.00 | 0.00 | 0.00 | 27 | 1010.0 |
| 20260503221056 | 15 | 244 | 4.8 | 16.1 | 0.00 | 0.00 | 0.00 | 26 | 1010.1 |
| 20260503220555 | 16 | 262 | 4.8 | 12.9 | 0.00 | 0.00 | 0.00 | 27 | 1010.1 |
| 20260503220101 | 16 | 174 | 4.8 | 12.9 | 0.00 | 0.00 | 0.00 | 26 | 1010.0 |
| 20260503215555 | 16 | 257 | 4.8 | 12.9 | 0.00 | 0.00 | 0.00 | 27 | 1010.1 |
| 20260503215055 | 15 | 215 | 3.2 | 11.3 | 0.00 | 0.00 | 0.00 | 27 | 1010.0 |
| 20260503214557 | 15 | 222 | 3.2 | 16.1 | 0.00 | 0.00 | 0.00 | 26 | 1010.1 |
| 20260503214055 | 15 | 171 | 4.8 | 16.1 | 0.00 | 0.00 | 0.00 | 25 | 1010.2 |
| 20260503213558 | 16 | 175 | 4.8 | 12.9 | 0.00 | 0.00 | 0.00 | 25 | 1010.2 |
| 20260503213103 | 16 | 240 | 4.8 | 14.5 | 0.00 | 0.00 | 0.00 | 27 | 1010.2 |
| 20260503212558 | 16 | 213 | 3.2 | 14.5 | 0.00 | 0.00 | 0.00 | 26 | 1010.1 |
| 20260503212057 | 15 | 274 | 4.8 | 19.3 | 0.00 | 0.00 | 0.00 | 27 | 1010.1 |
| 20260503211612 | 15 | 196 | 4.8 | 19.3 | 0.00 | 0.00 | 0.00 | 26 | 1010.0 |
| 20260503211058 | 15 | 183 | 4.8 | 19.3 | 0.00 | 0.00 | 0.00 | 26 | 1010.0 |
| 20260503210558 | 15 | 188 | 4.8 | 22.5 | 0.00 | 0.00 | 0.00 | 27 | 1010.1 |
| 20260503210057 | 15 | 225 | 6.4 | 22.5 | 0.00 | 0.00 | 0.00 | 28 | 1010.0 |
| 20260503205556 | 15 | 310 | 4.8 | 16.1 | 0.00 | 0.00 | 0.00 | 28 | 1009.9 |
| 20260503205056 | 15 | 146 | 3.2 | 12.9 | 0.00 | 0.00 | 0.00 | 30 | 1009.8 |
| 20260503204557 | 15 | 114 | 3.2 | 12.9 | 0.00 | 0.00 | 0.00 | 27 | 1010.0 |
| 20260503204054 | 15 | 183 | 4.8 | 12.9 | 0.00 | 0.00 | 0.00 | 28 | 1010.1 |
| 20260503203555 | 15 | 329 | 4.8 | 11.3 | 0.00 | 0.00 | 0.00 | 28 | 1010.1 |
| 20260503203057 | 15 | 250 | 3.2 | 11.3 | 0.00 | 0.00 | 0.00 | 27 | 1009.9 |
| 20260503202556 | 15 | 290 | 3.2 | 12.9 | 0.00 | 0.00 | 0.00 | 29 | 1010.0 |
| 20260503202059 | 15 | 308 | 4.8 | 12.9 | 0.00 | 0.00 | 0.00 | 28 | 1010.1 |
| 20260503201557 | 15 | 53 | 3.2 | 12.9 | 0.00 | 0.00 | 0.00 | 29 | 1010.2 |
| 20260503201056 | 15 | 294 | 3.2 | 14.5 | 0.00 | 0.00 | 0.00 | 27 | 1010.2 |
| 20260503200555 | 15 | 188 | 4.8 | 14.5 | 0.00 | 0.00 | 0.00 | 27 | 1010.2 |
| 20260503200113 | 15 | 157 | 3.2 | 14.5 | 0.00 | 0.00 | 0.00 | 27 | 1010.1 |
| 20260503195558 | 15 | 238 | 4.8 | 12.9 | 0.00 | 0.00 | 0.00 | 28 | 1010.1 |
| 20260503195055 | 15 | 193 | 3.2 | 8.0 | 0.00 | 0.00 | 0.00 | 30 | 1010.2 |
| 20260503194604 | 15 | 209 | 3.2 | 17.7 | 0.00 | 0.00 | 0.00 | 28 | 1010.2 |
| 20260503194059 | 14 | 39 | 8.0 | 17.7 | 0.00 | 0.00 | 0.00 | 30 | 1010.3 |
| 20260503193559 | 15 | 243 | 8.0 | 16.1 | 0.00 | 0.00 | 0.00 | 28 | 1010.3 |
| 20260503193102 | 15 | 360 | 4.8 | 12.9 | 0.00 | 0.00 | 0.00 | 29 | 1010.6 |
| 20260503192554 | 15 | 360 | 4.8 | 17.7 | 0.00 | 0.00 | 0.00 | 29 | 1010.6 |
| 20260503192054 | 14 | 240 | 6.4 | 17.7 | 0.00 | 0.00 | 0.00 | 30 | 1010.7 |
| 20260503191605 | 14 | 229 | 3.2 | 17.7 | 0.00 | 0.00 | 0.00 | 31 | 1010.6 |
| 20260503191058 | 14 | 295 | 8.0 | 17.7 | 0.00 | 0.00 | 0.00 | 30 | 1010.7 |
| 20260503190556 | 14 | 336 | 4.8 | 14.5 | 0.00 | 0.00 | 0.00 | 29 | 1010.5 |
| 20260503190056 | 14 | 172 | 3.2 | 17.7 | 0.00 | 0.00 | 0.00 | 33 | 1010.8 |
| 20260503185556 | 14 | 205 | 4.8 | 17.7 | 0.00 | 0.00 | 0.00 | 31 | 1010.9 |
| 20260503185056 | 14 | 211 | 4.8 | 19.3 | 0.00 | 0.00 | 0.00 | 32 | 1010.8 |
| 20260503184613 | 14 | 14 | 4.8 | 19.3 | 0.00 | 0.00 | 0.00 | 32 | 1010.9 |
| 20260503184055 | 14 | 259 | 4.8 | 20.9 | 0.00 | 0.00 | 0.00 | 34 | 1010.8 |
| 20260503183556 | 13 | 325 | 4.8 | 20.9 | 0.00 | 0.00 | 0.00 | 32 | 1010.8 |
| 20260503183100 | 13 | 107 | 6.4 | 14.5 | 0.00 | 0.00 | 0.00 | 33 | 1010.9 |
| 20260503182555 | 13 | 288 | 4.8 | 16.1 | 0.00 | 0.00 | 0.00 | 34 | 1010.9 |
| 20260503182055 | 13 | 202 | 4.8 | 16.1 | 0.00 | 0.00 | 0.00 | 32 | 1010.9 |
| 20260503181613 | 13 | 142 | 6.4 | 17.7 | 0.00 | 0.00 | 0.00 | 33 | 1011.0 |
| 20260503181101 | 13 | 40 | 6.4 | 17.7 | 0.00 | 0.00 | 0.00 | 31 | 1011.0 |
| 20260503180555 | 13 | 276 | 6.4 | 12.9 | 0.00 | 0.00 | 0.00 | 34 | 1011.0 |
| 20260503180116 | 13 | 235 | 4.8 | 14.5 | 0.00 | 0.00 | 0.00 | 33 | 1011.1 |
| 20260503175556 | 13 | 298 | 4.8 | 17.7 | 0.00 | 0.00 | 0.00 | 36 | 1011.1 |
| 20260503175055 | 12 | 254 | 4.8 | 17.7 | 0.00 | 0.00 | 0.00 | 37 | 1011.3 |
| 20260503174600 | 12 | 272 | 3.2 | 14.5 | 0.00 | 0.00 | 0.00 | 37 | 1011.4 |
| 20260503174056 | 12 | 237 | 4.8 | 14.5 | 0.00 | 0.00 | 0.00 | 39 | 1011.3 |
| 20260503173556 | 12 | 255 | 6.4 | 14.5 | 0.00 | 0.00 | 0.00 | 41 | 1011.4 |
| 20260503173106 | 12 | 254 | 3.2 | 14.5 | 0.00 | 0.00 | 0.00 | 38 | 1011.3 |
| 20260503172556 | 12 | 213 | 6.4 | 14.5 | 0.00 | 0.00 | 0.00 | 37 | 1011.4 |
| 20260503172055 | 12 | 240 | 4.8 | 14.5 | 0.00 | 0.00 | 0.00 | 37 | 1011.4 |
| 20260503171556 | 12 | 198 | 4.8 | 14.5 | 0.00 | 0.00 | 0.00 | 36 | 1011.4 |
| 20260503171055 | 11 | 232 | 4.8 | 11.3 | 0.00 | 0.00 | 0.00 | 38 | 1011.6 |
| 20260503170558 | 11 | 285 | 1.6 | 14.5 | 0.00 | 0.00 | 0.00 | 38 | 1011.5 |
| 20260503150557 | 10 | 294 | 6.4 | 11.3 | 0.00 | 0.00 | 0.00 | 34 | 1012.0 |
| 20260503150108 | 10 | 321 | 3.2 | 12.9 | 0.00 | 0.00 | 0.00 | 37 | 1012.0 |
| 20260503131056 | 9 | 220 | 3.2 | 17.7 | 0.00 | 0.00 | 0.00 | 51 | 1011.8 |
| 20260503130559 | 9 | 24 | 4.8 | 17.7 | 0.00 | 0.00 | 0.00 | 51 | 1011.9 |
| 20260503130106 | 8 | 286 | 4.8 | 14.5 | 0.00 | 0.00 | 0.00 | 51 | 1011.9 |
| 20260503110556 | 6 | 221 | 3.2 | 8.0 | 0.00 | 0.00 | 0.00 | 57 | 1011.4 |
| 20260503110108 | 6 | 206 | 1.6 | 8.0 | 0.00 | 0.00 | 0.00 | 57 | 1011.3 |
| 20260503081556 | 7 | 293 | 3.2 | 6.4 | 0.00 | 0.03 | 0.00 | 53 | 1010.4 |
| 20260503081055 | 7 | 232 | 0.0 | 4.8 | 0.00 | 0.03 | 0.00 | 53 | 1010.4 |
| 20260503080557 | 7 | 0 | 1.6 | 4.8 | 0.00 | 0.03 | 0.00 | 52 | 1010.3 |
| 20260503080105 | 7 | 0 | 0.0 | 4.8 | 0.00 | 0.03 | 0.00 | 53 | 1010.4 |
| 20260503072555 | 7 | 258 | 3.2 | 6.4 | 0.00 | 0.03 | 0.00 | 52 | 1010.3 |
| 20260503072055 | 7 | 283 | 1.6 | 4.8 | 0.00 | 0.03 | 0.00 | 53 | 1010.2 |
| 20260503071602 | 7 | 269 | 1.6 | 4.8 | 0.00 | 0.03 | 0.00 | 52 | 1010.2 |
| 20260503071102 | 7 | 245 | 1.6 | 4.8 | 0.00 | 0.03 | 0.00 | 52 | 1010.2 |
| 20260503070558 | 7 | 0 | 1.6 | 4.8 | 0.00 | 0.03 | 0.00 | 52 | 1010.3 |
| 20260503070105 | 7 | 215 | 0.0 | 3.2 | 0.00 | 0.03 | 0.00 | 52 | 1010.3 |
| 20260503060104 | 8 | 360 | 1.6 | 6.4 | 0.00 | 0.03 | 0.00 | 47 | 1010.6 |
| 20260503055100 | 8 | 0 | 1.6 | 8.0 | 0.00 | 0.03 | 0.00 | 47 | 1010.5 |
| 20260503054602 | 8 | 360 | 1.6 | 8.0 | 0.00 | 0.03 | 0.00 | 46 | 1010.6 |
| 20260503054056 | 8 | 360 | 3.2 | 6.4 | 0.00 | 0.03 | 0.00 | 46 | 1010.6 |
| 20260503053556 | 9 | 247 | 1.6 | 4.8 | 0.00 | 0.03 | 0.00 | 46 | 1010.7 |
| 20260503053056 | 9 | 360 | 1.6 | 4.8 | 0.00 | 0.03 | 0.00 | 46 | 1010.7 |
| 20260503052556 | 9 | 360 | 0.0 | 4.8 | 0.00 | 0.03 | 0.00 | 45 | 1010.8 |
| 20260503052058 | 9 | 0 | 0.0 | 9.7 | 0.00 | 0.03 | 0.00 | 45 | 1010.9 |
| 20260503051559 | 9 | 219 | 3.2 | 11.3 | 0.00 | 0.03 | 0.00 | 44 | 1011.1 |
| 20260503051056 | 9 | 218 | 3.2 | 11.3 | 0.00 | 0.03 | 0.00 | 44 | 1011.0 |
| 20260503050556 | 9 | 293 | 3.2 | 8.0 | 0.00 | 0.03 | 0.00 | 44 | 1010.9 |
| 20260503050057 | 9 | 0 | 1.6 | 6.4 | 0.00 | 0.03 | 0.00 | 44 | 1011.0 |
| 20260503045600 | 9 | 238 | 1.6 | 6.4 | 0.00 | 0.03 | 0.00 | 43 | 1011.0 |
| 20260503045059 | 9 | 219 | 1.6 | 8.0 | 0.00 | 0.03 | 0.00 | 44 | 1010.9 |
| 20260503044608 | 10 | 196 | 1.6 | 8.0 | 0.00 | 0.03 | 0.00 | 44 | 1011.1 |